STARLINK-1304, 45376

Orbit data source: Space-Track

STARLINK-1304, 45376 is a payload satellite owned by SpaceX/Seattle (US) in LEO that was launched on Wed, 18 Mar 2020 UTC via an FALCON 9 launch vehicle from the Air Force Eastern Test Range (AFETR). Payloads include a variety of satellites, spacecraft, and rockets equipped with specific instruments for various scientific and technological missions. These include communications satellites like Starlink; space stations such as the ISS; scientific satellites like the Hubble; Earth observation satellites from companies like Planet Labs, Umbra, and HawkEye 360; GPS; miniature CubeSats for education and research; and military/defense satellites.

Loading next visibility...
STARLINK-1304 details
Identifier
45376, 2020-019S
Orbit
LEO
Last TLE update17 hours ago
Origin
Flag of USSpaceX/Seattle (US)
ManufacturerSpaceX/Seattle
MissionOperational Commercial Communications
Bus & MotorSTARLINK, Unknown motor
Mass260 kg wet, ~248 kg dry
Launch date (UTC)
2020-03-18 (5 years ago)
Launch vehicle
FALCON 9
Launch site
Air Force Eastern Test Range (AFETR)
Object type
Payload
Rocket body
Debris
Shape & HBRBox + 1 Pan, 8.86 m
Radar Cross Section13.562 m², Large (>1 m²)

Expand to show TLE details & history

TLE from 17 hours ago
0 STARLINK-1304
1 45376U 20019S   24348.50361739  .00009104  00000-0  62950-3 0  9991
2 45376  53.0550  32.0694 0002464  95.7657 264.3613 15.06387989261723
Epoch: 2024-12-13T12:05Z
Definitive object data (Epoch: 2024-12-13T12:05:12.542Z)
Latitude-0.00002°
Longitude128.09847°
Altitude548.296 km
Speed7.589 km/s
True Right ascension02h 08m 16s
True Declination0° 00' 00"
Sunlit
Object was in full shadow at TLE epoch
Visualization TLE readout
Latitude-40.26231°
Longitude-15.76871°
Altitude561.7 km
Speed7.58 km/s
Apparent Right ascension16h 05m 19s
Apparent Declination-40° 08' 07"
Sunlit
Object is in daylight
Visualization observer readout
Local Sidereal Time03:35:33
Azimuth265.405° W
Elevation-84.299°
Doppler factor1
Orbital elements
Apogee altitude549.225 km
Perigee altitude545.813 km
Semi-major axis6,925.656 km
Eccentricity0.0002464
Inclination53.055°
RAAN32.0694°
Arg. of periapsis95.7657°
True anomaly264.3332°
Mean anomaly264.3613°
Eccentric anomaly264.34725°
Mean motion3.76575 °/min
BSTAR0.0006295
Orbital period95.6 mins
Loading maneuver chart data...
Loading historical data...
Loading historical data...
Loading historical data...
Loading historical data...
Loading historical data...
Loading historical data...
Loading historical data...

STARLINK-1304 Visibility forecast

Observer location: undefined°, undefined

Span
Click to sort rows by Start time (UTC) header in descending order
Start Az.
Max El. time (UTC)
Max El. Az.
Max El.
End time (UTC)
End Az.
7 mins2024-12-14 05:46:34.237Z223.802° SW2024-12-14 05:49:34.237Z197.633° SSW42.964°2024-12-14 05:53:34.237Z52.884° ENE
4 mins2024-12-14 07:28:34.237Z308.97° NW2024-12-14 07:29:34.237Z329.576° NNW20.883°2024-12-14 07:32:34.237Z24.269° NE
4 mins2024-12-14 10:49:34.237Z345.585° N2024-12-14 10:51:34.237Z21.971° NNE18.47°2024-12-14 10:53:34.237Z57.056° ENE
7 mins2024-12-14 12:28:34.237Z313.796° NW2024-12-14 12:31:34.237Z46.188° ENE44.263°2024-12-14 12:35:34.237Z125.613° SE
|